Miscellaneous Local Product
Issued by NWS Hastings, NE

Home | Current Version | Previous Version | Text Only | Print | Product List | Glossary Off
Versions: 1 2 3 4 5 6 7 8 9 10 11 12 13 14 15 16 17 18 19 20 21 22 23 24 25 26 27 28 29 30 31 32 33 34 35 36 37 38 39 40 41 42 43 44 45 46 47 48 49 50

000
AXUS43 KGID 160702
MISGRI

GID CWA HOURLY WEATHER ROUNDUP
NATIONAL WEATHER SERVICE HASTINGS NE
200 AM CDT WED AUG 16 2017

NOTE: "FAIR" INDICATES FEW OR NO CLOUDS BELOW 12,000 FEET WITH NO
SIGNIFICANT WEATHER AND/OR OBSTRUCTIONS TO VISIBILITY.

...SOUTH CENTRAL NEBRASKA...

CITY           SKY/WX    TMP DP  RH WIND       PRES   REMARKS
GRAND ISLAND   LGT RAIN  64  64 100 NE18      29.84F
HASTINGS       HVY RAIN  65  63  93 NE10      29.85F FOG
KEARNEY        CLOUDY    64  63  96 E13       29.84F
ORD            HVY RAIN  64  62  93 W6        29.87R FOG
YORK           LGT RAIN  66  66 100 NE7       29.83F
AURORA         TSTM      64  64 100 N14G22    29.86F
LEXINGTON      TSTM      63  61  93 N15G26    29.92F
HOLDREGE       CLOUDY    65  61  88 E12       29.86S
HEBRON         CLOUDY    75  71  87 SE3       29.81F

...NEBRASKA PANHANDLE...

CITY           SKY/WX    TMP DP  RH WIND       PRES   REMARKS
CHADRON        LGT RAIN  62  60  93 W6        29.96R
ALLIANCE       CLOUDY    61  59  93 N6        29.96F
SCOTTSBLUFF    CLOUDY    61  56  83 NW5       30.00R
SIDNEY         LGT RAIN  60  57  89 N9        29.99R

...WESTERN AND NORTH CENTRAL NEBRASKA...

CITY           SKY/WX    TMP DP  RH WIND       PRES   REMARKS
VALENTINE      RAIN      64  59  83 SE5       29.90F
AINSWORTH      RAIN      63  63 100 W6        29.92S
ONEILL         RAIN      65  65 100 W6        29.92S
BROKEN BOW     LGT RAIN  63  62  97 NW10      29.94F
IMPERIAL       CLOUDY    61  58  90 NE12      29.93R
NORTH PLATTE   LGT RAIN  63  61  93 NE21G32   29.91R
MCCOOK         LGT RAIN  63  62  97 NE26G36   29.86F FOG

...EASTERN NEBRASKA...

CITY           SKY/WX    TMP DP  RH WIND       PRES   REMARKS
NORFOLK        RAIN      66  64  93 SW13      29.85F
SO SIOUX CITY  CLOUDY    66  66 100 NW6       29.84R
TEKAMAH        CLOUDY    67  64  90 S7        29.80S
COLUMBUS       RAIN      66  65  96 W6        29.87F FOG
ALBION         RAIN      67  65  96 S5        29.89F
OMAHA EPPLEY   MOCLDY    71  65  81 SE12      29.84F
OFFUTT AFB     MOCLDY    71  67  88 E8        29.83F
MILLARD        CLOUDY    70  68  92 E3        29.84F
LINCOLN        LGT RAIN  69  66  90 VRB6      29.83F
NEBRASKA CITY  PTCLDY    69  69 100 NE3       29.85S
BEATRICE       LGT RAIN  76  72  87 SE10      29.82F
FALLS CITY     CLOUDY    74  71  91 E6        29.83F

...NORTHERN KANSAS...

CITY           SKY/WX    TMP DP  RH WIND       PRES   REMARKS
GOODLAND       CLOUDY    63  59  87 N23G35    29.91R
HILL CITY      PTCLDY    74  69  85 SE10      29.77F
NORTON         PTSUNNY   73  64  73 CALM      29.79
PHILLIPSBURG   PTCLDY    73  70  88 E8        29.78F
SMITH CENTER   CLEAR     72  70  94 SE8       29.79F
HAYS           MOCLDY    73  71  93 SE12      29.79S
RUSSELL        PTCLDY    74  71  91 SE14      29.78F
CONCORDIA      MOCLDY    74  72  93 E3        29.80F
SALINA         CLOUDY    77  72  84 S9        29.79F
TOPEKA         CLOUDY    78  74  87 SE8       29.82F



USA.gov is the U.S. government's official web portal to all federal, state and local government web resources and services.